Regional Weather Roundup
Issued by NWS

Home | Current Version | Previous Version | Graphics & Text | Print | Product List | Glossary On
Versions: 1 2 3 4 5 6 7 8 9 10 11 12 13 14 15 16 17 18 19 20 21 22 23 24 25 26 27 28 29 30 31 32 33 34 35 36 37 38 39 40 41 42 43 44 45 46 47 48 49 50
957
ASUS44 KJAN 191203
RWRMS

MISSISSIPPI HOURLY WEATHER ROUNDUP
NATIONAL WEATHER SERVICE JACKSON MS
600 AM CST FRI DEC 19 2014

NOTE: "FAIR: INDICATES FEW OR NO CLOUDS BELOW 12,000 FEET WITH NO
SIGNIFICANT WEATHER AND/OR OBSTRUCTIONS TO VISIBILITY.

MSZ001>002-007>008-010>013-018>021-025>028-034>036-191300-
NORTHWEST MISSISSIPPI

CITY           SKY/WX    TMP DP  RH WIND       PRES   REMARKS
CLARKSDALE     CLOUDY    43  41  93 N8        30.22S
CLEVELAND      FAIR      44  41  91 N8        30.19S
GREENWOOD      CLOUDY    46  39  76 NE7       30.18S
6HR MIN TEMP:  46; 6HR MAX TEMP:  48;

GREENVILLE     CLOUDY    46  42  86 N6        30.18R
6HR MIN TEMP:  46; 6HR MAX TEMP:  47;

GRENADA        CLOUDY    43  39  87 CALM      30.20S
OLIVE BRANCH   CLOUDY    39  39 100 NE3       30.22R
OXFORD         CLOUDY    41  37  87 N3        30.22R
TUNICA         CLOUDY    43  37  81 N8        30.24R
$$

MSZ003>006-009-014>017-022>024-029>033-037>039-191300-
NORTHEAST MISSISSIPPI

CITY           SKY/WX    TMP DP  RH WIND       PRES   REMARKS
COLUMBUS AFB   NOT AVBL
CORINTH        CLOUDY    41  36  81 NE8       30.20S
GOLDN TRIANGLE CLOUDY    43  37  81 CALM      30.19R
STARKVILLE     CLOUDY    45  37  76 NE5       30.19S
TUPELO         CLOUDY    44  38  79 NE5       30.20R
6HR MIN TEMP:  44; 6HR MAX TEMP:  45;

$$

MSZ040-058-191300-
CENTRAL MISSISSIPPI

CITY           SKY/WX    TMP DP  RH WIND       PRES   REMARKS
JACKSON INTL   CLOUDY    48  37  65 E5        30.16R
6HR MIN TEMP:  47; 6HR MAX TEMP:  48;

JACKSON HAWKNS CLOUDY    48  37  65 E8        30.16R
6HR MIN TEMP:  48; 6HR MAX TEMP:  48;

MERIDIAN KEY   CLOUDY    45  36  70 NE8       30.17R
6HR MIN TEMP:  43; 6HR MAX TEMP:  46;

MERIDIAN NAS   CLOUDY    44  36  73 NE3       30.18R
6HR MIN TEMP:  38; 6HR MAX TEMP:  44;

RAYMOND        CLOUDY    48  45  87 CALM      30.15R
VICKSBURG      CLOUDY    50  43  77 NE6       30.15R
6HR MIN TEMP:  49; 6HR MAX TEMP:  50;

$$

MSZ059>079-191300-
SOUTH MISSISSIPPI

CITY           SKY/WX    TMP DP  RH WIND       PRES   REMARKS
HATTIESBURG    CLOUDY    50  45  83 NE5       30.15R
6HR MIN TEMP:  50; 6HR MAX TEMP:  51;

MCCOMB         HVY RAIN  50  47  89 E9        30.12R FOG
6HR MIN TEMP:  50; 6HR MAX TEMP:  52; 6HR PCP:  0.07;

NATCHEZ        CLOUDY    50  46  87 NE6       30.12S
6HR MIN TEMP:  48; 6HR MAX TEMP:  52;

PINE BELT      CLOUDY    46  39  76 E6        30.14S
6HR MIN TEMP:  46; 6HR MAX TEMP:  48;

$$

MSZ080>082-191300-
COASTAL MISSISSIPPI

CITY           SKY/WX    TMP DP  RH WIND       PRES   REMARKS
BILOXI         HVY RAIN  53  50  89 N7        30.11R FOG
6HR MIN TEMP:  53; 6HR MAX TEMP:  55; 6HR PCP:  0.21;

PASCAGOULA     CLOUDY    52  48  86 NE6       30.11R
6HR MIN TEMP:  52; 6HR MAX TEMP:  55; 6HR PCP: TRACE;

GULFPORT       RAIN      52  50  93 N7        30.12R
6HR MIN TEMP:  52; 6HR MAX TEMP:  55; 6HR PCP:  0.16;

$$



USA.gov is the U.S. government's official web portal to all federal, state and local government web resources and services.